Tracking 35280 objects as of 7-Sep-2026
HD Live streaming from Space Station
objects crossing your sky now

STARLINK-34118

Track STARLINK-34118 now!
10-day predictions
STARLINK-34118 is classified as:


NORAD ID: 63900
Int'l Code: 2025-095L
Launch date: May 10, 2025
Source: United States (US)
Launch site: AIR FORCE EASTERN TEST RANGE (AFETR)
Your satellite tracking list
Your tracking list is empty




NASA's NSSDC Master Catalog

Two Line Element Set (TLE):
1 63900U 25095L   26249.99402353  .00008764  00000-0  32758-3 0  9990
2 63900  43.0001 232.5052 0001164 269.6758  90.3960 15.27583156 75510
Source of the keplerian elements: AFSPC